Location: Eltingville
(40.5454°N, 74.1657°W)
Time: 06:30:50
(UTC+00:00)

Daily predictions for brighter satellites

Satellite Brightness Start Highest point End
(mag) Time Altitude Azimuth Time Altitude Azimuth Time Altitude Azimuth
Cosmos 2219 Rocket 2.2 21:54:08 10° SSW 21:59:43 80° ESE 22:05:23 10° NNE
Feng Yun 1-1 Rocket 4.4 21:54:54 10° SE 22:00:05 50° ENE 22:05:17 10° N
SMAP 3.3 21:56:04 10° SE 22:00:31 46° ENE 22:04:58 10° N
USA 267 3.3 21:54:19 10° ESE 22:00:51 76° NE 22:07:23 10° NW
Cosmos 1869 Rocket 4.0 21:57:55 10° NNW 22:02:19 69° W 22:06:43 10° S
NOSS 3-4 (A) 4.1 21:56:30 10° SW 22:02:20 53° NW 22:08:32 10° NNE
NOSS 3-4 (C) 4.1 21:56:35 10° SW 22:02:27 53° NW 22:08:39 10° NNE
Lacrosse 5 rocket 1.5 21:59:59 10° SSW 22:04:19 67° SE 22:08:26 10° NE
ATLAS 3B R/B 2.7 21:57:53 10° NNW 22:04:39 87° ENE 22:11:35 10° SSE
YAOGAN 6 4.4 22:03:26 10° E 22:05:01 13° ENE 22:06:34 10° NE
Radarsat Rocket 4.4 21:59:21 10° S 22:05:45 75° WSW 22:11:39 10° NNW
ALOS 3.9 22:03:49 10° SSW 22:08:09 38° W 22:12:32 10° NNW
Cosmos 1844 Rocket 3.4 22:03:20 10° NNW 22:08:48 58° WSW 22:14:16 10° S
Cosmos 1980 4.2 22:08:01 10° S 22:13:13 40° ESE 22:18:28 10° NE
SL-4 R/B 2.8 22:10:36 10° W 22:14:04 39° NNW 22:17:49 10° NE
Cosmos 304 Rocket 3.7 22:12:11 10° NNW 22:17:01 80° ENE 22:21:49 10° SSE
ERBS 2.2 22:15:01 10° NW 22:18:22 79° NE 22:21:43 10° SE
Centaur D-1A AC-31 3.4 22:17:08 10° SSW 22:19:08 14° SSE 22:21:57 10° ESE
Okean O Rocket 3.5 22:17:20 10° SSW 22:21:17 34° W 22:25:16 10° NNW
BREEZE-M DEB (TANK) 3.2 22:17:05 10° W 22:22:41 41° NNW 22:25:03 15° ENE
COSMOS 2428 3.1 22:20:36 10° SSW 22:26:13 65° WNW 22:31:54 10° NNE
Aureole 1 Rocket 3.9 22:24:50 10° SE 22:26:38 15° E 22:26:55 15° E
Cosmos 2242 Rocket 4.1 22:22:40 10° SSE 22:26:53 39° E 22:31:08 10° NNE
Cosmos 1302 Rocket 4.2 22:22:06 10° NNW 22:27:24 80° WSW 22:32:37 10° SSE
Cosmos 1862 Rocket 3.5 22:24:28 10° S 22:28:44 66° E 22:33:05 10° NNE
IRS-1C Rocket 4.3 22:25:14 10° S 22:30:30 80° WSW 22:35:48 10° NNW
Cosmos 2251 Rocket 3.5 22:26:04 10° S 22:31:21 72° ESE 22:36:38 10° NNE
Cosmos 1346 Rocket 4.4 22:27:50 10° NNW 22:31:32 38° W 22:35:14 10° SSW
Meteor 1-5 Rocket 4.1 22:27:22 10° N 22:32:57 83° E 22:38:20 10° S
Okean-O 2.7 22:29:53 10° SSE 22:34:12 56° ENE 22:38:33 10° N
NOSS 2 (A) 3.8 22:36:09 10° NNW 22:38:31 58° NE 22:40:25 14° SE
Cosmos 1666 3.5 22:35:29 10° NNE 22:38:44 27° ENE 22:41:57 10° SE
ATLAS 2AS CENTAUR R/B 4.4 22:33:33 10° W 22:40:34 32° NW 22:47:35 10° NNE
OAO 3 Rocket 4.4 22:37:04 10° SW 22:41:13 31° SSE 22:44:31 15° ESE
Shenzhou-11 Module 2.1 22:39:20 10° W 22:42:01 50° N 22:42:58 31° NE
NOSS 0 Rocket 3.9 22:36:36 10° SSW 22:42:48 86° ESE 22:49:04 10° NNE
FengYun 1-2 T 4.4 22:38:34 10° SE 22:43:47 48° ENE 22:49:02 10° N
Cosmos 1092 Rocket 4.1 22:38:18 10° SSE 22:44:24 53° E 22:50:28 10° NNE
Exosat Rocket 3.7 22:39:10 10° SSW 22:44:49 78° WNW 22:49:49 10° NNE
STARLINK-46 4.5 22:44:05 10° W 22:46:19 22° NNW 22:47:34 17° N
OAO 2 Rocket 4.3 22:44:51 10° SW 22:49:29 38° SSE 22:52:47 18° ESE
Envisat 2.9 22:48:32 10° SSE 22:53:36 80° ENE 22:58:42 10° N
ISS -3.2 22:52:15 10° NW 22:55:24 37° NNE 22:55:47 35° NE
STARLINK-60 3.2 22:55:50 10° SW 22:59:10 59° SE 22:59:56 44° E
RESURS DK-1 4.1 22:57:11 10° WSW 23:00:49 29° WNW 23:04:28 10° N
Cosmos 2278 Rocket 2.1 22:57:19 10° NNW 23:03:00 89° NE 23:08:40 10° SSE
Cosmos 407 Rocket 4.1 22:59:19 10° SSE 23:03:51 32° E 23:04:42 31° E
Cosmos 1812 4.1 23:00:42 10° SSW 23:04:20 40° WNW 23:08:00 10° N
Cosmos 1908 Rocket 3.4 23:02:09 10° N 23:06:32 68° E 23:10:53 10° SSE
COSMO-SKYMED 1 2.5 23:03:47 11° NNE 23:08:00 87° E 23:12:20 10° SSW
Cosmos 1992 Rocket 4.0 23:07:37 10° NNW 23:12:52 83° WSW 23:18:04 10° SSE
SL-16 R/B 2.5 23:08:46 10° S 23:14:07 44° ESE 23:15:45 35° ENE
YAOGAN 1 2.6 23:10:04 10° SSE 23:14:17 55° ENE 23:18:31 10° N
Cosmos 2333 Rocket 4.1 23:13:32 10° WSW 23:18:15 26° NW 23:23:00 10° N
NOAA 15 4.5 23:13:05 10° SSE 23:18:19 68° ENE 23:23:33 10° N
Atlas Centaur 2 4.4 23:12:04 10° WSW 23:18:49 31° SSW 23:26:02 10° SE
USA 116 4.3 23:15:06 14° NNE 23:19:50 74° ESE 23:24:57 10° S
Cosmos 2237 Rocket 2.9 23:21:11 10° SW 23:26:44 54° WNW 23:31:23 15° NNE
BREEZE-M DEB (TANK) 2.8 23:24:43 10° NW 23:27:30 38° NNW 23:27:30 38° NNW
Cosmos 1536 4.2 23:25:48 10° NNW 23:29:35 40° W 23:33:19 10° SSW
Cosmos 1900 4.2 23:25:57 10° NNW 23:30:51 88° NE 23:33:18 30° SSE
Cosmos 1428 Rocket 4.3 23:24:46 10° S 23:30:53 76° E 23:37:07 10° N
Okean 1-7 2.9 23:27:10 10° S 23:31:28 85° W 23:33:00 40° N
CZ-4 R/B 1.6 23:28:09 10° S 23:32:04 68° WSW 23:35:57 10° NNW
Cosmos 1553 Rocket 4.1 23:26:25 10° N 23:32:35 50° ENE 23:38:47 10° SSE
FALCON 9 DEB 3.6 23:29:28 10° SW 23:32:21 59° SW 23:32:21 59° SW
YAOGAN 6 4.0 23:34:51 10° SSW 23:38:08 37° W 23:41:28 10° NNW
Lacrosse 5 rocket 3.3 23:40:33 10° W 23:43:47 21° NNW 23:44:24 20° NNW
Cosmos 2026 Rocket 4.1 23:41:23 10° SSW 23:47:25 70° W 23:53:29 10° N
DMSP B5D1-3 4.4 23:48:43 63° NNE 23:49:36 90° S 23:54:42 10° SSW
H-II Stage 2 4.4 23:22:43 10° W 23:50:07 41° SSW 23:53:22 25° SSE
Meteor 1-18 Rocket 4.1 23:44:48 10° S 23:50:34 88° E 23:52:18 47° NNE
Okean 1 4.4 23:46:39 10° SSW 23:49:09 37° SSW 23:49:09 37° SSW
Cosmos 1190 Rocket 3.9 23:49:04 10° SSW 23:53:52 75° S 23:53:52 75° S
SL-4 R/B 4.3 23:51:50 10° NW 23:53:28 16° NNW 23:53:28 16° NNW
